Location: Unspecified
(44.0704°N, 88.6889°W)
Time: 07:58:05
(UTC+02:00)

Okean 3 - Pass Details

Date: 26 March 2019
Orbit: 576 x 602 km, 82.5° (Epoch: 23 April)

Event Time Altitude Azimuth Distance (km) Brightness Sun altitude
Rises 09:50:31 0° 132° (SE) 2,841 7.1 -30.2°
Reaches altitude 10° 09:54:54 10° 89° (E) 1,949 6.7 -29.6°
Maximum altitude 09:55:26 10° 82° (E) 1,937 6.8 -29.5°
Drops below altitude 10° 09:55:58 10° 75° (ENE) 1,951 6.9 -29.4°
Sets 10:00:22 0° 32° (NNE) 2,862 8.0 -28.8°
